Location: Prague
(50.0830°N, 14.4670°E)
Time: 02:38:00
(UTC+01:00)

Oscar 11 - Pass Details

Date: 06 December 2021
Orbit: 611 x 625 km, 97.6° (Epoch: 17 January)

Event Time Altitude Azimuth Distance (km) Brightness Sun altitude
Rises 17:27:03 0° 199° (SSW) 2,897 11.1 -13.1°
Reaches altitude 10° 17:29:35 10° 213° (SSW) 1,997 10.5 -13.5°
Maximum altitude 17:33:07 24° 267° (W) 1,312 9.6 -14.0°
Drops below altitude 10° 17:36:40 10° 322° (NW) 2,011 9.9 -14.6°
Sets 17:39:15 0° 336° (NNW) 2,923 10.6 -14.9°
